Location: Sabalos
(43.2860°N, 0.1414°E)
Time: 03:59:58
(UTC+00:00)

NOSS 0 Rocket - Pass Details

Date: 05 July 2020
Orbit: 934 x 955 km, 70.0° (Epoch: 06 August)

Event Time Altitude Azimuth Distance (km) Brightness Sun altitude
Exits shadow 22:07:32 25° 185° (S) 1,774 4.9 -18.8°
Maximum altitude 22:11:07 65° 112° (ESE) 1,028 3.9 -19.1°
Drops below altitude 10° 22:17:12 10° 32° (NNE) 2,662 6.7 -19.6°
Sets 22:19:45 0° 29° (NNE) 3,613 7.5 -19.8°
